EXS89VB LERS-EGBB

Flight info

Callsign EXS89VB
Flight time 1h 47m
Altitude 36000
Route NATPI DCT EVNAM DCT TUPAR UN861 DIKRO UM184 HEMEL
Aircraft B738/M-SDE2E3FGHIRWXY/LB1

Departure

Time 2026-05-09 15:53
Airport Reus Airport (LERS)

Arrival

Time 2026-05-09 17:40
Airport Birmingham Airport (EGBB)
Time Latitude Longitude Altitude Speed Heading
2026-05-09 15:24 41.14683 1.15620 248 ft 0 kts 339°
2026-05-09 15:42 41.14670 1.15627 268 ft 2 kts 339°
2026-05-09 15:42 41.14655 1.15635 234 ft 2 kts 339°
2026-05-09 15:42 41.14639 1.15642 245 ft 2 kts 339°
2026-05-09 15:43 41.14629 1.15647 245 ft 2 kts 348°
2026-05-09 15:43 41.14613 1.15648 245 ft 2 kts 23°
2026-05-09 15:43 41.14598 1.15628 246 ft 2 kts 68°
2026-05-09 15:43 41.14598 1.15627 246 ft 0 kts 69°
2026-05-09 15:46 41.14613 1.15679 245 ft 9 kts 69°
2026-05-09 15:46 41.14644 1.15784 245 ft 15 kts 69°
2026-05-09 15:47 41.14683 1.15918 245 ft 15 kts 69°
2026-05-09 15:47 41.14720 1.16046 245 ft 15 kts 68°
2026-05-09 15:47 41.14757 1.16169 245 ft 14 kts 68°
2026-05-09 15:47 41.14791 1.16288 245 ft 13 kts 69°
2026-05-09 15:48 41.14824 1.16401 245 ft 13 kts 69°
2026-05-09 15:48 41.14856 1.16509 245 ft 13 kts 69°
2026-05-09 15:48 41.14887 1.16616 245 ft 12 kts 69°
2026-05-09 15:48 41.14918 1.16720 245 ft 12 kts 69°
2026-05-09 15:49 41.14947 1.16822 245 ft 12 kts 69°
2026-05-09 15:49 41.14975 1.16921 245 ft 11 kts 68°
2026-05-09 15:49 41.15005 1.17017 245 ft 11 kts 68°
2026-05-09 15:49 41.15033 1.17110 245 ft 11 kts 69°
2026-05-09 15:50 41.15058 1.17202 245 ft 10 kts 70°
2026-05-09 15:50 41.15084 1.17291 245 ft 10 kts 69°
2026-05-09 15:50 41.15109 1.17378 245 ft 10 kts 69°
2026-05-09 15:50 41.15141 1.17485 245 ft 15 kts 69°
2026-05-09 15:51 41.15186 1.17641 245 ft 21 kts 69°
2026-05-09 15:51 41.15245 1.17836 245 ft 24 kts 70°
2026-05-09 15:51 41.15306 1.18051 245 ft 26 kts 66°
2026-05-09 15:51 41.15336 1.18227 245 ft 17 kts 112°
2026-05-09 15:52 41.15183 1.18235 245 ft 13 kts 246°
2026-05-09 15:52 41.15145 1.18103 245 ft 31 kts 249°
2026-05-09 15:52 41.14972 1.17514 245 ft 105 kts 249°
2026-05-09 15:53 41.14627 1.16352 301 ft 158 kts 247°
2026-05-09 15:53 41.14222 1.15018 1082 ft 154 kts 239°
2026-05-09 15:53 41.13592 1.13796 1652 ft 169 kts 232°
2026-05-09 15:53 41.12919 1.12395 2106 ft 195 kts 237°
2026-05-09 15:54 41.12212 1.10811 2747 ft 210 kts 237°
2026-05-09 15:54 41.11443 1.09082 3258 ft 221 kts 238°
2026-05-09 15:54 41.10639 1.07277 3690 ft 239 kts 238°
2026-05-09 15:54 41.09741 1.05264 4009 ft 265 kts 238°
2026-05-09 15:55 41.08785 1.03122 4770 ft 271 kts 238°
2026-05-09 15:55 41.07814 1.00950 5497 ft 278 kts 239°
2026-05-09 15:55 41.06831 0.98755 6364 ft 279 kts 239°
2026-05-09 15:55 41.05824 0.96511 7088 ft 284 kts 239°
2026-05-09 15:56 41.04820 0.94278 7850 ft 287 kts 239°
2026-05-09 15:56 41.03785 0.91957 8623 ft 291 kts 242°
2026-05-09 15:56 41.03249 0.89372 9358 ft 295 kts 271°
2026-05-09 15:56 41.03729 0.86749 10084 ft 296 kts 299°
2026-05-09 15:57 41.05032 0.84569 10380 ft 313 kts 322°
2026-05-09 15:57 41.06967 0.83183 10556 ft 332 kts 345°
2026-05-09 15:57 41.09310 0.82819 10775 ft 348 kts
2026-05-09 15:57 41.11709 0.83434 11257 ft 355 kts 19°
2026-05-09 15:58 41.14038 0.84579 11949 ft 359 kts 23°
2026-05-09 15:58 41.16358 0.85842 12686 ft 363 kts 24°
2026-05-09 15:58 41.18721 0.87108 13380 ft 369 kts 22°
2026-05-09 15:58 41.21132 0.88343 14050 ft 374 kts 22°
2026-05-09 15:59 41.23592 0.89558 14671 ft 380 kts 21°
2026-05-09 15:59 41.26096 0.90765 15321 ft 386 kts 20°
2026-05-09 15:59 41.28614 0.91966 15997 ft 391 kts 20°
2026-05-09 15:59 41.31200 0.93197 16609 ft 397 kts 20°
2026-05-09 16:00 41.33821 0.94446 17221 ft 403 kts 20°
2026-05-09 16:00 41.35603 0.95309 17629 ft 406 kts 22°
2026-05-09 16:00 41.38835 0.97855 18360 ft 411 kts 38°
2026-05-09 16:00 41.41123 1.00183 18846 ft 416 kts 38°
2026-05-09 16:01 41.43453 1.02501 18917 ft 418 kts 37°
2026-05-09 16:01 41.45806 1.04784 18945 ft 421 kts 37°
2026-05-09 16:01 41.48199 1.07072 19340 ft 426 kts 36°
2026-05-09 16:01 41.50623 1.09382 19965 ft 427 kts 36°
2026-05-09 16:02 41.53089 1.11628 20493 ft 431 kts 30°
2026-05-09 16:02 41.58809 1.14143 21484 ft 438 kts
2026-05-09 16:02 41.61822 1.14395 21977 ft 441 kts
2026-05-09 16:03 41.64902 1.14585 22440 ft 445 kts
2026-05-09 16:03 41.68019 1.14803 22899 ft 449 kts
2026-05-09 16:03 41.71149 1.15042 23367 ft 453 kts
2026-05-09 16:03 41.74310 1.15296 23768 ft 456 kts
2026-05-09 16:04 41.77493 1.15560 24152 ft 459 kts
2026-05-09 16:04 41.80694 1.15828 24540 ft 463 kts
2026-05-09 16:04 41.83914 1.16101 24842 ft 467 kts
2026-05-09 16:04 41.87178 1.16376 25133 ft 472 kts
2026-05-09 16:05 41.90467 1.16652 25565 ft 473 kts
2026-05-09 16:05 41.93752 1.16927 25958 ft 475 kts
2026-05-09 16:05 41.97053 1.17204 26323 ft 477 kts
2026-05-09 16:05 42.00389 1.17484 26675 ft 481 kts
2026-05-09 16:06 42.03730 1.17764 27010 ft 483 kts
2026-05-09 16:06 42.07103 1.18048 27344 ft 486 kts
2026-05-09 16:06 42.10497 1.18333 27674 ft 489 kts
2026-05-09 16:06 42.13861 1.18617 28012 ft 492 kts
2026-05-09 16:07 42.17332 1.18909 28335 ft 494 kts
2026-05-09 16:07 42.20776 1.19200 28675 ft 497 kts
2026-05-09 16:07 42.24243 1.19494 29003 ft 499 kts
2026-05-09 16:07 42.27670 1.19784 29320 ft 501 kts
2026-05-09 16:08 42.31162 1.20080 29566 ft 505 kts
2026-05-09 16:08 42.34677 1.20378 29857 ft 507 kts
2026-05-09 16:08 42.38203 1.20678 30192 ft 507 kts
2026-05-09 16:08 42.41726 1.20977 30590 ft 505 kts
2026-05-09 16:09 42.45246 1.21277 30890 ft 506 kts
2026-05-09 16:09 42.48769 1.21578 31152 ft 508 kts
2026-05-09 16:09 42.52261 1.21875 31433 ft 509 kts
2026-05-09 16:09 42.55796 1.22177 31696 ft 509 kts
2026-05-09 16:10 42.59336 1.22481 32026 ft 509 kts
2026-05-09 16:10 42.62866 1.22783 32353 ft 509 kts
2026-05-09 16:10 42.66415 1.23086 32633 ft 510 kts
2026-05-09 16:10 42.69967 1.23391 32911 ft 511 kts
2026-05-09 16:11 42.73521 1.23576 33220 ft 511 kts 358°
2026-05-09 16:11 42.77073 1.23234 33493 ft 512 kts 353°
2026-05-09 16:11 42.80613 1.22702 33829 ft 511 kts 352°
2026-05-09 16:11 42.84131 1.22135 34143 ft 509 kts 352°
2026-05-09 16:12 42.87638 1.21578 34435 ft 507 kts 352°
2026-05-09 16:12 42.91158 1.21045 34702 ft 507 kts 352°
2026-05-09 16:12 42.94612 1.20546 35051 ft 504 kts 352°
2026-05-09 16:12 42.98084 1.20062 35522 ft 499 kts 352°
2026-05-09 16:13 43.01523 1.19591 35869 ft 497 kts 352°
2026-05-09 16:13 43.04974 1.19118 35870 ft 501 kts 352°
2026-05-09 16:13 43.11943 1.18161 35881 ft 502 kts 352°
2026-05-09 16:14 43.18862 1.17205 35872 ft 495 kts 352°
2026-05-09 16:14 43.25705 1.16254 35877 ft 494 kts 352°
2026-05-09 16:15 43.32535 1.15303 35883 ft 493 kts 352°
2026-05-09 16:15 43.39367 1.14349 35884 ft 493 kts 352°
2026-05-09 16:16 43.46196 1.13393 35885 ft 494 kts 352°
2026-05-09 16:16 43.52999 1.12440 35892 ft 494 kts 352°
2026-05-09 16:17 43.59817 1.11306 35877 ft 493 kts 345°
2026-05-09 16:17 43.63096 1.10007 35884 ft 488 kts 334°
2026-05-09 16:17 43.66219 1.08144 35899 ft 487 kts 332°
2026-05-09 16:18 43.72403 1.04314 35874 ft 488 kts 332°
2026-05-09 16:18 43.78620 1.00512 35881 ft 488 kts 333°
2026-05-09 16:19 43.84854 0.96750 35878 ft 489 kts 333°
2026-05-09 16:19 43.91108 0.92989 35881 ft 489 kts 333°
2026-05-09 16:20 43.97355 0.89224 35876 ft 489 kts 333°
2026-05-09 16:20 44.03591 0.85454 35869 ft 489 kts 333°
2026-05-09 16:21 44.09766 0.81709 35866 ft 489 kts 333°
2026-05-09 16:21 44.16002 0.77920 35864 ft 489 kts 333°
2026-05-09 16:22 44.22233 0.74125 35859 ft 489 kts 333°
2026-05-09 16:22 44.28463 0.70321 35860 ft 488 kts 333°
2026-05-09 16:23 44.34689 0.66511 35860 ft 488 kts 333°
2026-05-09 16:23 44.40910 0.62695 35862 ft 488 kts 333°
2026-05-09 16:24 44.47125 0.58874 35870 ft 487 kts 333°
2026-05-09 16:24 44.53325 0.55053 35864 ft 487 kts 333°
2026-05-09 16:25 44.58488 0.51864 35860 ft 487 kts 333°
2026-05-09 16:25 44.65700 0.47401 35857 ft 487 kts 333°
2026-05-09 16:26 44.71899 0.43554 35861 ft 487 kts 333°
2026-05-09 16:26 44.78101 0.39695 35856 ft 487 kts 333°
2026-05-09 16:27 44.84301 0.35830 35857 ft 486 kts 333°
2026-05-09 16:27 44.90485 0.31965 35860 ft 486 kts 333°
2026-05-09 16:28 44.96633 0.28113 35863 ft 486 kts 333°
2026-05-09 16:28 45.02828 0.24223 35864 ft 486 kts 333°
2026-05-09 16:29 45.09012 0.20331 35864 ft 486 kts 333°
2026-05-09 16:29 45.15181 0.16439 35868 ft 486 kts 333°
2026-05-09 16:30 45.21323 0.12554 35867 ft 485 kts 333°
2026-05-09 16:30 45.27488 0.08646 35869 ft 485 kts 333°
2026-05-09 16:31 45.33638 0.04738 35872 ft 484 kts 333°
2026-05-09 16:31 45.39785 0.00822 35867 ft 484 kts 333°
2026-05-09 16:32 45.44885 -0.02433 35869 ft 483 kts 333°
2026-05-09 16:32 45.51025 -0.06361 35880 ft 483 kts 333°
2026-05-09 16:33 45.57146 -0.10287 35880 ft 483 kts 333°
2026-05-09 16:33 45.63279 -0.14229 35883 ft 482 kts 333°
2026-05-09 16:34 45.69399 -0.18173 35882 ft 482 kts 333°
2026-05-09 16:34 45.75497 -0.22112 35884 ft 481 kts 333°
2026-05-09 16:35 45.81601 -0.26065 35881 ft 481 kts 333°
2026-05-09 16:35 45.87654 -0.29994 35879 ft 480 kts 333°
2026-05-09 16:36 45.99825 -0.37922 35864 ft 480 kts 332°
2026-05-09 16:37 46.05909 -0.41900 35877 ft 480 kts 332°
2026-05-09 16:37 46.11992 -0.45887 35882 ft 479 kts 332°
2026-05-09 16:38 46.18063 -0.49876 35877 ft 479 kts 332°
2026-05-09 16:38 46.24131 -0.53873 35869 ft 479 kts 332°
2026-05-09 16:39 46.30151 -0.57848 35869 ft 479 kts 332°
2026-05-09 16:39 46.36204 -0.61855 35877 ft 479 kts 332°
2026-05-09 16:40 46.42337 -0.65738 35866 ft 481 kts 339°
2026-05-09 16:42 46.65671 -0.70112 35883 ft 484 kts 351°
2026-05-09 16:42 46.69057 -0.70680 35881 ft 484 kts 351°
2026-05-09 16:42 46.75697 -0.71807 35879 ft 483 kts 351°
2026-05-09 16:43 46.82371 -0.72941 35887 ft 482 kts 351°
2026-05-09 16:43 46.89046 -0.74075 35881 ft 481 kts 351°
2026-05-09 16:44 46.95713 -0.75210 35879 ft 481 kts 351°
2026-05-09 16:44 47.02315 -0.76336 35874 ft 480 kts 351°
2026-05-09 16:45 47.08942 -0.77469 35878 ft 479 kts 351°
2026-05-09 16:45 47.15562 -0.78604 35876 ft 478 kts 351°
2026-05-09 16:46 47.22169 -0.79739 35879 ft 477 kts 351°
2026-05-09 16:46 47.28759 -0.80875 35881 ft 476 kts 351°
2026-05-09 16:47 47.35300 -0.82005 35884 ft 475 kts 351°
2026-05-09 16:47 47.41863 -0.83142 35887 ft 474 kts 351°
2026-05-09 16:48 47.48426 -0.84281 35883 ft 474 kts 351°
2026-05-09 16:48 47.54923 -0.85404 35887 ft 473 kts 352°
2026-05-09 16:49 47.61492 -0.86264 35895 ft 473 kts 353°
2026-05-09 16:50 47.71344 -0.87372 35895 ft 473 kts 353°
2026-05-09 16:50 47.77906 -0.88150 35898 ft 472 kts 353°
2026-05-09 16:51 47.84467 -0.88953 35902 ft 472 kts 353°
2026-05-09 16:51 47.90960 -0.89754 35911 ft 471 kts 352°
2026-05-09 16:52 47.97507 -0.90564 35911 ft 471 kts 352°
2026-05-09 16:52 48.04047 -0.91373 35916 ft 470 kts 352°
2026-05-09 16:53 48.10573 -0.92182 35909 ft 470 kts 352°
2026-05-09 16:53 48.17055 -0.92988 35915 ft 469 kts 352°
2026-05-09 16:54 48.23567 -0.93800 35911 ft 469 kts 352°
2026-05-09 16:54 48.30063 -0.94611 35916 ft 468 kts 352°
2026-05-09 16:55 48.36500 -0.95417 35920 ft 467 kts 352°
2026-05-09 16:55 48.42980 -0.96231 35928 ft 467 kts 352°
2026-05-09 16:56 48.49455 -0.97047 35929 ft 466 kts 352°
2026-05-09 16:56 48.55917 -0.97862 35932 ft 465 kts 352°
2026-05-09 16:57 48.62323 -0.98673 35936 ft 465 kts 352°
2026-05-09 16:57 48.68775 -0.99491 35945 ft 464 kts 352°
2026-05-09 16:58 48.75218 -1.00311 35945 ft 464 kts 352°
2026-05-09 16:58 48.81650 -1.01131 35948 ft 463 kts 352°
2026-05-09 16:59 48.88035 -1.01948 35953 ft 462 kts 352°
2026-05-09 16:59 48.94442 -1.02769 35955 ft 462 kts 352°
2026-05-09 17:00 49.00843 -1.03591 35958 ft 461 kts 352°
2026-05-09 17:00 49.07241 -1.04416 35960 ft 460 kts 352°
2026-05-09 17:01 49.13630 -1.05241 35961 ft 460 kts 352°
2026-05-09 17:01 49.20001 -1.06067 35970 ft 459 kts 352°
2026-05-09 17:02 49.26316 -1.06887 35973 ft 458 kts 352°
2026-05-09 17:02 49.32660 -1.07712 35977 ft 457 kts 352°
2026-05-09 17:03 49.38995 -1.08540 35982 ft 456 kts 352°
2026-05-09 17:05 49.64256 -1.10494 36014 ft 460 kts
2026-05-09 17:05 49.70600 -1.09441 36011 ft 461 kts
2026-05-09 17:06 49.77038 -1.08520 35999 ft 462 kts
2026-05-09 17:06 49.83397 -1.07653 35993 ft 462 kts
2026-05-09 17:07 49.89809 -1.06788 35992 ft 462 kts
2026-05-09 17:07 49.96213 -1.05917 35993 ft 461 kts
2026-05-09 17:08 50.02601 -1.05042 35998 ft 461 kts
2026-05-09 17:08 50.12177 -1.03696 36000 ft 460 kts
2026-05-09 17:09 50.18552 -1.02798 36004 ft 459 kts
2026-05-09 17:09 50.24887 -1.01904 36008 ft 459 kts
2026-05-09 17:10 50.31265 -1.01003 36012 ft 458 kts
2026-05-09 17:10 50.37617 -1.00108 36014 ft 458 kts
2026-05-09 17:11 50.43963 -0.99222 36013 ft 458 kts
2026-05-09 17:11 50.50316 -0.98333 36020 ft 458 kts
2026-05-09 17:12 50.56637 -0.97445 36021 ft 458 kts
2026-05-09 17:12 50.63002 -0.96547 36022 ft 458 kts
2026-05-09 17:13 50.68287 -0.95800 36027 ft 458 kts
2026-05-09 17:13 50.71965 -0.95276 36032 ft 458 kts
2026-05-09 17:14 50.78287 -0.94348 36032 ft 459 kts
2026-05-09 17:14 50.84591 -0.92692 36027 ft 465 kts 14°
2026-05-09 17:15 50.87691 -0.91083 35700 ft 471 kts 15°
2026-05-09 17:15 50.90816 -0.89409 35093 ft 472 kts 15°
2026-05-09 17:15 50.93893 -0.87752 34543 ft 468 kts 15°
2026-05-09 17:15 50.96973 -0.86107 33993 ft 464 kts 14°
2026-05-09 17:16 50.99987 -0.84516 33387 ft 464 kts 14°
2026-05-09 17:17 51.21263 -0.73419 29268 ft 462 kts 15°
2026-05-09 17:18 51.24326 -0.71814 28633 ft 464 kts 15°
2026-05-09 17:18 51.26366 -0.70744 28227 ft 467 kts 15°
2026-05-09 17:18 51.30497 -0.68576 27424 ft 473 kts 15°
2026-05-09 17:18 51.32601 -0.67468 27014 ft 472 kts 15°
2026-05-09 17:19 51.35727 -0.65819 26430 ft 471 kts 16°
2026-05-09 17:19 51.38840 -0.64175 25856 ft 470 kts 16°
2026-05-09 17:19 51.41944 -0.62533 25320 ft 469 kts 16°
2026-05-09 17:19 51.45043 -0.60892 24779 ft 467 kts 17°
2026-05-09 17:20 51.48075 -0.59285 24438 ft 461 kts 17°
2026-05-09 17:20 51.51104 -0.57675 24081 ft 456 kts 17°
2026-05-09 17:20 51.54102 -0.56082 23723 ft 452 kts 17°
2026-05-09 17:20 51.57120 -0.54476 23329 ft 450 kts 17°
2026-05-09 17:21 51.60049 -0.52915 22919 ft 448 kts 17°
2026-05-09 17:21 51.63004 -0.51339 22525 ft 447 kts 17°
2026-05-09 17:21 51.65938 -0.49771 22124 ft 447 kts 17°
2026-05-09 17:21 51.68875 -0.48198 21802 ft 446 kts 17°
2026-05-09 17:22 51.71838 -0.46611 21376 ft 446 kts 17°
2026-05-09 17:22 51.74783 -0.45031 20919 ft 446 kts 18°
2026-05-09 17:22 51.77748 -0.43579 20398 ft 443 kts 10°
2026-05-09 17:22 51.80786 -0.43456 19931 ft 431 kts 349°
2026-05-09 17:23 51.83622 -0.44778 19506 ft 419 kts 334°
2026-05-09 17:23 51.86121 -0.47089 19094 ft 410 kts 325°
2026-05-09 17:23 51.88512 -0.49566 18657 ft 405 kts 326°
2026-05-09 17:23 51.90862 -0.51927 18191 ft 399 kts 327°
2026-05-09 17:25 52.02633 -0.63449 15581 ft 388 kts 327°
2026-05-09 17:25 52.04898 -0.65667 15096 ft 385 kts 327°
2026-05-09 17:25 52.07191 -0.67918 14606 ft 382 kts 327°
2026-05-09 17:25 52.09418 -0.70107 14124 ft 379 kts 327°
2026-05-09 17:26 52.11686 -0.72340 13627 ft 377 kts 327°
2026-05-09 17:26 52.13925 -0.74546 13083 ft 374 kts 327°
2026-05-09 17:26 52.16073 -0.76665 12593 ft 368 kts 327°
2026-05-09 17:26 52.18249 -0.78813 12150 ft 361 kts 327°
2026-05-09 17:27 52.20375 -0.80916 11712 ft 354 kts 327°
2026-05-09 17:27 52.22462 -0.82984 11282 ft 348 kts 326°
2026-05-09 17:27 52.24250 -0.85544 10864 ft 338 kts 304°
2026-05-09 17:27 52.25287 -0.88909 10566 ft 328 kts 285°
2026-05-09 17:28 52.25806 -0.92484 10250 ft 321 kts 281°
2026-05-09 17:28 52.26266 -0.95980 10035 ft 312 kts 281°
2026-05-09 17:28 52.26720 -0.99425 9768 ft 305 kts 281°
2026-05-09 17:28 52.27160 -1.02779 9560 ft 297 kts 279°
2026-05-09 17:29 52.27369 -1.06038 9364 ft 288 kts 270°
2026-05-09 17:29 52.27235 -1.09242 9196 ft 279 kts 259°
2026-05-09 17:29 52.26704 -1.12156 9078 ft 269 kts 240°
2026-05-09 17:29 52.25512 -1.14488 8890 ft 262 kts 223°
2026-05-09 17:30 52.24153 -1.16468 8516 ft 264 kts 221°
2026-05-09 17:30 52.22763 -1.18437 8245 ft 263 kts 220°
2026-05-09 17:30 52.21388 -1.20377 7951 ft 262 kts 220°
2026-05-09 17:30 52.20004 -1.22328 7632 ft 263 kts 220°
2026-05-09 17:31 52.18620 -1.24285 7307 ft 264 kts 220°
2026-05-09 17:31 52.17238 -1.26264 6984 ft 264 kts 223°
2026-05-09 17:32 52.13572 -1.36578 5809 ft 261 kts 240°
2026-05-09 17:32 52.12739 -1.39198 5537 ft 260 kts 248°
2026-05-09 17:32 52.12602 -1.42088 5270 ft 261 kts 285°
2026-05-09 17:33 52.13535 -1.44547 5020 ft 259 kts 321°
2026-05-09 17:33 52.14996 -1.45619 4798 ft 255 kts 352°
2026-05-09 17:33 52.16746 -1.46144 4569 ft 258 kts 344°
2026-05-09 17:33 52.18441 -1.47139 4316 ft 261 kts 338°
2026-05-09 17:34 52.20101 -1.48397 4052 ft 263 kts 334°
2026-05-09 17:35 52.29182 -1.57212 2848 ft 225 kts 329°
2026-05-09 17:35 52.30484 -1.58449 2708 ft 210 kts 332°
2026-05-09 17:36 52.31692 -1.59653 2598 ft 197 kts 329°
2026-05-09 17:36 52.32795 -1.60850 2531 ft 184 kts 329°
2026-05-09 17:36 52.33809 -1.61921 2455 ft 172 kts 329°
2026-05-09 17:36 52.34786 -1.62977 2417 ft 162 kts 329°
2026-05-09 17:37 52.35719 -1.64012 2417 ft 170 kts 330°
2026-05-09 17:37 52.36703 -1.65110 2310 ft 172 kts 328°
2026-05-09 17:37 52.37687 -1.66217 2061 ft 172 kts 329°
2026-05-09 17:37 52.38646 -1.67291 1811 ft 163 kts 329°
2026-05-09 17:38 52.39566 -1.68311 1621 ft 160 kts 328°
2026-05-09 17:38 52.40473 -1.69330 1411 ft 158 kts 328°
2026-05-09 17:38 52.41361 -1.70316 1215 ft 148 kts 328°
2026-05-09 17:39 52.42991 -1.72137 781 ft 145 kts 329°
2026-05-09 17:39 52.43826 -1.73067 571 ft 145 kts 332°
2026-05-09 17:39 52.44629 -1.73962 384 ft 140 kts 330°
2026-05-09 17:39 52.45381 -1.74846 346 ft 121 kts 328°
2026-05-09 17:40 52.46008 -1.75508 319 ft 92 kts 333°
2026-05-09 17:40 52.46097 -1.75582 316 ft 85 kts 334°
2026-05-09 17:40 52.46174 -1.75644 315 ft 79 kts 331°
2026-05-09 17:40 52.46505 -1.76028 327 ft 39 kts 310°